Location: Agrourtane
(31.0889°N, 8.8629°W)
Time: 19:18:48
(UTC+00:00)

Daily predictions for brighter satellites

Satellite Brightness Start Highest point End
(mag) Time Altitude Azimuth Time Altitude Azimuth Time Altitude Azimuth
Cosmos 405 Rocket 2.8 18:10:37 10° N 18:14:37 62° E 18:18:37 10° SSE
CZ-2C R/B 1.0 18:12:04 10° WNW 18:15:51 71° NNE 18:19:22 10° E
CZ-4B R/B 3.8 18:11:51 10° SE 18:16:59 37° ENE 18:22:08 10° N
COSMO-SKYMED 1 2.8 18:14:57 10° NNE 18:19:09 48° E 18:23:19 10° S
CZ-4B DEB 4.2 18:16:10 10° SSE 18:21:42 82° ENE 18:27:16 10° N
Cosmos 332 Rocket 3.8 18:16:59 10° S 18:21:51 75° ESE 18:26:44 10° NNE
Okean 1-7 Rocket 4.0 18:19:32 10° N 18:23:45 42° E 18:27:59 10° SSE
Cosmos 1939 Rocket 3.4 18:20:31 10° S 18:24:22 63° W 18:28:19 10° NNW
Cosmos 1892 Rocket 3.7 18:20:00 10° N 18:24:25 82° W 18:28:47 10° S
Cosmos 2263 Rocket 2.1 18:20:09 10° NNW 18:25:43 79° ENE 18:31:17 10° SSE
H-2A R/B 4.1 18:26:35 10° ESE 18:29:09 16° ENE 18:31:40 10° NNE
PSLV R/B 3.9 18:25:56 10° S 18:29:58 84° WSW 18:33:57 10° NNW
FALCON 9 DEB 3.7 18:27:59 10° WSW 18:30:48 44° NW 18:33:39 10° NNE
Cosmos 2123 Rocket 4.1 18:25:34 10° N 18:31:47 58° E 18:37:55 10° SSE
Cosmos 2228 4.4 18:28:57 10° SE 18:32:03 19° E 18:35:09 10° NE
USA 229 DEB 3.7 18:26:16 10° SSW 18:32:33 82° WNW 18:39:09 10° NNE
USA 229 3.6 18:26:24 10° SSW 18:32:38 83° WNW 18:39:14 10° NNE
CZ-2C R/B 2.7 18:28:15 10° NNE 18:33:44 61° E 18:39:03 10° S
Meteor 1-11 4.4 18:31:02 10° N 18:36:31 51° E 18:42:02 10° SSE
Cosmos 1892 4.2 18:36:23 10° NE 18:38:42 16° ENE 18:39:36 15° E
SMAP 4.3 18:34:52 10° S 18:39:19 45° W 18:43:47 10° NNW
PAYLOAD B 4.3 18:34:10 10° SSE 18:39:40 89° WSW 18:45:15 10° NNW
Cosmos 2227 4.2 18:35:23 10° NNW 18:41:10 83° ENE 18:46:53 10° SSE
CZ-2D R/B 3.2 18:37:36 10° SSE 18:41:27 89° W 18:45:19 10° NNW
Cosmos 220 Rocket 4.0 18:37:54 10° SSW 18:42:19 89° W 18:46:45 10° NNE
FALCON 9 DEB 3.4 18:42:04 10° SW 18:44:56 52° NW 18:47:36 12° NNE
Cosmos 1626 Rocket 3.6 18:42:12 10° N 18:46:24 50° E 18:50:36 10° SSE
H-2A R/B 2.1 18:41:35 10° SSE 18:46:56 79° ENE 18:52:23 10° N
NOSS 2-2 (C) 3.7 18:44:42 10° S 18:48:02 32° ESE 18:49:42 21° ENE
Meteor 2-10 Rocket 3.6 18:42:35 10° S 18:48:11 70° E 18:53:35 10° NNE
X-37B 2.6 18:47:36 10° NNW 18:50:09 18° NNE 18:51:09 16° NE
SJ-11-01 4.4 18:47:41 10° SSE 18:52:12 51° ENE 18:56:45 10° N
CZ-3B R/B 2.8 18:51:06 10° SW 18:53:53 18° S 18:55:12 14° SE
NOSS 3-1 (A) 4.1 18:50:30 10° SW 18:55:21 46° NW 19:00:52 10° NNE
FALCON 9 DEB 3.9 18:53:59 10° WSW 18:56:47 39° NW 18:58:54 15° NNE
Cosmos 1844 Rocket 3.6 18:53:02 10° N 18:57:40 26° ENE 18:59:39 22° E
Tiangong 3.3 18:57:46 10° NNW 18:59:43 15° N 19:00:17 14° NNE
YAOGAN 3 4.5 18:57:03 10° SSE 19:01:23 74° ENE 19:05:44 10° N
YAOGAN 1 3.2 18:58:55 10° SE 19:02:44 32° ENE 19:06:35 10° N
USA 267 3.5 18:57:35 15° ESE 19:02:55 51° NE 19:09:12 10° NNW
Milstar 3 Cent rocket 3.2 18:58:23 10° SW 19:03:43 49° SSE 19:09:21 22° E
Cosmos 1455 2.6 19:01:30 10° SSE 19:05:04 39° E 19:06:46 24° NE
DMSP B5D2-2 4.2 19:02:49 10° NNE 19:07:54 51° E 19:12:56 10° S
Cosmos 1605 Rocket 4.3 19:03:35 10° SSW 19:09:48 73° W 19:16:09 10° N
H-2A R/B 2.1 19:07:49 11° NNE 19:11:38 49° E 19:15:45 10° S
Cosmos 1606 Rocket 3.8 19:09:44 10° SSE 19:13:59 45° E 19:17:34 14° NNE
COSMOS 2428 3.1 19:09:53 10° S 19:15:03 38° ESE 19:16:52 30° ENE
Hubble Space Telescope 3.0 19:15:07 10° S 19:16:31 12° SSE 19:16:31 12° SSE
Lacrosse 4 Rocket 1.4 19:14:21 10° NNW 19:18:42 68° ENE 19:20:59 27° SE
DELTA 2 R/B (1) 4.1 19:13:58 10° SSW 19:19:10 40° SE 19:20:37 34° ESE
Cosmos 2333 4.1 19:15:38 10° SSW 19:21:14 89° ESE 19:26:56 10° NNE
Cosmos 1447 Rocket 4.3 19:21:15 10° N 19:27:24 74° E 19:33:32 10° S
Cosmos 2251 Rocket 3.3 19:24:22 10° N 19:29:35 69° ENE 19:32:54 22° SSE
Okean O Rocket 3.1 19:31:04 10° SSW 19:35:03 37° W 19:39:05 10° NNW
CZ-4 R/B 1.2 19:37:07 64° S 19:37:43 89° W 19:41:48 10° NNW
Cosmos 2219 Rocket 2.0 19:34:17 10° SSW 19:39:51 89° ESE 19:43:12 25° NNE
Cosmos 292 Rocket 3.6 19:36:52 10° S 19:41:41 76° ESE 19:41:57 73° ENE
NOSS 2-2 (D) 4.0 19:38:59 10° SW 19:42:23 41° WNW 19:42:37 40° NW
Cosmos 1726 Rocket 3.9 19:39:06 10° S 19:42:34 54° S 19:42:34 54° S
Cosmos 2360 Rocket 4.0 19:39:00 10° SW 19:43:53 30° WNW 19:48:49 10° N
Delta 2 Rocket 4.3 19:40:41 10° WNW 19:42:53 32° NW 19:42:53 32° NW
ARGOS 4.1 19:40:30 10° S 19:45:39 47° W 19:50:52 10° NNW
CZ-4C R/B 2.3 19:42:36 10° SSW 19:45:44 44° S 19:45:44 44° S
Cosmos 614 Rocket 4.1 19:43:08 10° NNW 19:48:12 70° WSW 19:51:48 19° S
Lacrosse 5 2.8 19:47:02 10° SSW 19:50:10 35° S 19:50:10 35° S
OAO 3 Rocket 3.5 19:48:31 10° W 19:53:01 56° NNW 19:53:01 56° NNW
Cosmos 1844 3.6 19:47:49 10° NNW 19:53:16 69° NE 19:53:16 69° NE
Cosmos 2333 Rocket 2.9 19:48:57 10° SW 19:54:27 53° WNW 19:59:19 14° N
CZ-2C R/B 3.0 19:52:01 10° W 19:54:12 24° WSW 19:54:12 24° WSW
Cosmos 1932 4.3 19:52:22 10° NNW 19:58:21 68° NE 19:58:21 68° NE
IRS-1C Rocket 4.0 20:00:36 84° W 20:00:36 84° W 20:05:52 10° NNW
Cosmos 2056 Rocket 3.5 19:57:09 10° SSW 20:02:15 72° WNW 20:02:17 72° WNW
H-2A R/B 4.2 20:00:23 10° SSW 20:04:18 33° W 20:08:06 10° NW
Cosmos 1844 Rocket 4.2 20:36:36 10° NW 20:41:25 32° WSW 20:41:25 32° WSW
USA 267 4.4 20:44:59 34° SW 20:45:55 36° SW 20:51:49 10° WNW
Milstar 3 Cent rocket 4.5 21:34:22 10° W 21:38:10 38° W 21:38:10 38° W
